User: anonymous   Login
Location: ???????
(54.9996°N, 37.9529°E)
Time: 08:49:50
(UTC+00:00)
Language:

Cosmos 2221 - Orbit

View from above orbital plane
View from above orbital plane
View from above satellite
View from above satellite

Ground track
Ground track

The orbit data is extracted from the following two-line orbital elements,

1 22236U 92080A   24169.92983785  .00002423  00000-0  23725-3 0  9990
2 22236  82.5048 160.3635 0016829 138.6315 221.6182 14.91796707686745
Epoch (UTC): 17 June 2024 22:18:57
Eccentricity: 0.0016829
inclination: 82.5048°
perigee height: 580 km
apogee height: 604 km
right ascension of ascending node: 160.3635°
argument of perigee: 138.6315°
revolutions per day: 14.91796707
mean anomaly at epoch: 221.6182°
orbit number at epoch: 68674

The dashed part of the orbit path shows where the satellite is in the earth's shadow,  

DLR